EA1M Weather Reports


Display with metric or nautical units.
time (UTC)temp
F
wind
direction
speed
MPH
gust
MPH
rain 1hr
in
rain 24hr
in
rain mn
in
humidity
%
barometer
mb
20260902000037 62 84 0.0 1.0 0.00 0.00 0.00 93 1023.5
20260901235101 62 84 0.0 1.0 0.00 0.00 0.00 93 1023.6
20260901234021 63 78 0.0 2.0 0.00 0.00 0.00 93 1023.5
20260901233045 63 74 1.0 2.0 0.00 0.00 0.00 92 1023.4
20260901232110 63 84 1.0 2.0 0.00 0.00 0.00 92 1023.4
20260901231029 63 104 2.0 3.0 0.00 0.00 0.00 92 1023.3
20260901230054 63 114 3.0 4.0 0.00 0.00 0.00 92 1023.2
20260901225117 63 114 3.0 4.0 0.00 0.00 0.00 92 1023.3
20260901224037 63 115 2.0 4.0 0.00 0.00 0.00 91 1023.3
20260901223101 64 102 3.0 4.0 0.00 0.00 0.00 91 1023.4
20260901222021 64 106 2.0 3.0 0.00 0.00 0.00 90 1023.4
20260901221045 64 87 1.0 2.0 0.00 0.00 0.00 89 1023.6
20260901220129 65 75 1.0 1.0 0.00 0.00 0.00 88 1023.5
20260901215049 66 81 1.0 2.0 0.00 0.00 0.00 88 1023.5
20260901214113 66 63 0.0 1.0 0.00 0.00 0.00 87 1023.6
20260901213259 66 25 1.0 2.0 0.00 0.00 0.00 87 1023.7
20260901212037 66 35 1.0 1.0 0.00 0.00 0.00 87 1023.5
20260901211141 66 19 1.0 2.0 0.00 0.00 0.00 87 1023.5
20260901210021 66 29 1.0 2.0 0.00 0.00 0.00 86 1023.5
20260901205045 67 20 2.0 3.0 0.00 0.00 0.00 86 1023.5
20260901204109 67 28 2.0 3.0 0.00 0.00 0.00 85 1023.4
20260901203029 67 35 0.0 1.0 0.00 0.00 0.00 85 1023.2
20260901202112 67 27 1.0 3.0 0.00 0.00 0.00 84 1023.0
20260901201117 68 359 2.0 3.0 0.00 0.00 0.00 84 1022.9
20260901200037 68 322 2.0 4.0 0.00 0.00 0.00 84 1022.9
20260901195101 68 333 2.0 4.0 0.00 0.00 0.00 83 1022.8
20260901194042 68 1 1.0 3.0 0.00 0.00 0.00 82 1022.5
20260901193044 69 322 2.0 4.0 0.00 0.00 0.00 81 1022.4
20260901192129 69 328 2.0 3.0 0.00 0.00 0.00 81 1022.5
20260901191054 69 24 2.0 4.0 0.00 0.00 0.00 81 1022.4
20260901190054 69 356 2.0 3.0 0.00 0.00 0.00 80 1022.4
20260901185117 70 16 2.0 4.0 0.00 0.00 0.00 78 1022.4
20260901184058 70 354 2.0 4.0 0.00 0.00 0.00 78 1022.2
20260901183101 70 17 2.0 7.0 0.00 0.00 0.00 79 1022.3
20260901182020 70 339 3.0 6.0 0.00 0.00 0.00 78 1022.2
20260901181104 70 316 4.0 7.0 0.00 0.00 0.00 78 1022.3
20260901180108 71 344 4.0 8.0 0.00 0.00 0.00 76 1022.5
20260901175028 72 352 3.0 7.0 0.00 0.00 0.00 74 1022.3
20260901174053 71 324 4.0 9.0 0.00 0.00 0.00 76 1022.4
20260901173117 71 328 5.0 9.0 0.00 0.00 0.00 76 1022.4
20260901172057 71 333 4.0 8.0 0.00 0.00 0.00 76 1022.4
20260901171101 71 314 4.0 8.0 0.00 0.00 0.00 77 1022.1
20260901170021 72 314 4.0 10.0 0.00 0.00 0.00 75 1022.2
20260901165104 72 319 5.0 10.0 0.00 0.00 0.00 74 1022.1
20260901164249 72 326 4.0 8.0 0.00 0.00 0.00 75 1022.1
20260901163029 72 341 4.0 9.0 0.00 0.00 0.00 74 1021.9
20260901162053 73 22 3.0 9.0 0.00 0.00 0.00 74 1021.9
20260901161117 72 357 3.0 8.0 0.00 0.00 0.00 75 1022.0
20260901160038 72 359 5.0 9.0 0.00 0.00 0.00 76 1022.1
20260901155121 71 345 5.0 9.0 0.00 0.00 0.00 77 1021.9
20260901154020 72 0 4.0 8.0 0.00 0.00 0.00 76 1022.0
20260901153045 72 349 5.0 11.0 0.00 0.00 0.00 77 1022.2
20260901152109 72 345 4.0 13.0 0.00 0.00 0.00 76 1022.1
20260901151028 71 350 4.0 10.0 0.00 0.00 0.00 77 1022.2
20260901150113 72 358 5.0 13.0 0.00 0.00 0.00 76 1022.1
20260901145116 73 358 5.0 10.0 0.00 0.00 0.00 74 1022.0
20260901144037 72 343 4.0 9.0 0.00 0.00 0.00 75 1022.1
20260901143100 72 11 5.0 10.0 0.00 0.00 0.00 74 1022.2
20260901142021 72 33 5.0 9.0 0.00 0.00 0.00 75 1022.2
20260901141045 73 5 5.0 13.0 0.00 0.00 0.00 74 1022.2
20260901140108 73 9 4.0 9.0 0.00 0.00 0.00 73 1022.0
20260901135029 73 35 5.0 11.0 0.00 0.00 0.00 73 1021.9
20260901134052 73 9 5.0 11.0 0.00 0.00 0.00 73 1022.2
20260901133116 74 345 5.0 10.0 0.00 0.00 0.00 72 1022.0
20260901132117 74 359 5.0 10.0 0.00 0.00 0.00 72 1022.0
20260901131142 73 331 5.0 9.0 0.00 0.00 0.00 73 1022.0
20260901130041 74 358 4.0 9.0 0.00 0.00 0.00 72 1022.0
20260901125045 73 23 4.0 9.0 0.00 0.00 0.00 73 1022.0
20260901124108 74 356 4.0 9.0 0.00 0.00 0.00 71 1021.9
20260901123029 73 353 3.0 9.0 0.00 0.00 0.00 72 1022.1
20260901122053 74 347 4.0 10.0 0.00 0.00 0.00 70 1022.3
20260901121117 73 20 3.0 6.0 0.00 0.00 0.00 72 1022.1
20260901120036 73 11 2.0 4.0 0.00 0.00 0.00 71 1022.1
20260901115101 73 330 3.0 7.0 0.00 0.00 0.00 72 1022.2
20260901114021 73 17 2.0 6.0 0.00 0.00 0.00 72 1022.2
20260901113045 71 360 4.0 7.0 0.00 0.00 0.00 76 1022.4
20260901112109 72 28 3.0 6.0 0.00 0.00 0.00 74 1022.5
20260901111029 70 18 2.0 7.0 0.00 0.00 0.00 77 1022.7
20260901110133 70 352 4.0 7.0 0.00 0.00 0.00 75 1023.0
20260901105116 71 36 3.0 7.0 0.00 0.00 0.00 75 1023.2
20260901104037 71 356 3.0 4.0 0.00 0.00 0.00 75 1023.2
20260901103100 69 22 3.0 4.0 0.00 0.00 0.00 78 1023.3
20260901102020 69 42 2.0 4.0 0.00 0.00 0.00 77 1023.3
20260901101104 69 7 3.0 4.0 0.00 0.00 0.00 77 1023.3
20260901100109 69 41 1.0 3.0 0.00 0.00 0.00 78 1023.3
20260901095028 69 40 1.0 4.0 0.00 0.00 0.00 79 1023.4
20260901094052 67 37 1.0 2.0 0.00 0.00 0.00 81 1023.3
20260901093117 67 33 1.0 3.0 0.00 0.00 0.00 80 1023.4
20260901092037 69 15 1.0 3.0 0.00 0.00 0.00 77 1023.4
20260901091121 67 75 1.0 2.0 0.00 0.00 0.00 81 1023.3
20260901090021 65 55 1.0 2.0 0.00 0.00 0.00 84 1023.4
20260901085045 64 70 0.0 1.0 0.00 0.00 0.00 87 1023.3
20260901084108 64 51 0.0 1.0 0.00 0.00 0.00 89 1023.3
20260901083029 61 83 0.0 2.0 0.00 0.00 0.00 91 1023.3
20260901082114 60 79 1.0 2.0 0.00 0.00 0.00 92 1023.3
20260901081137 60 94 1.0 2.0 0.00 0.00 0.00 92 1023.3
20260901080036 59 85 1.0 3.0 0.00 0.00 0.00 93 1023.4
20260901075121 59 106 2.0 4.0 0.00 0.00 0.00 93 1023.2
20260901074021 58 141 3.0 4.0 0.00 0.00 0.00 93 1023.2
20260901073045 58 123 3.0 3.0 0.00 0.00 0.00 94 1023.1
20260901072108 58 124 3.0 4.0 0.00 0.00 0.00 94 1022.9
20260901071028 57 105 2.0 3.0 0.00 0.00 0.00 94 1022.8
20260901070052 57 68 0.0 1.0 0.00 0.00 0.00 94 1022.8
20260901065118 57 72 1.0 2.0 0.00 0.00 0.00 94 1022.8
20260901064037 57 0.0 0.0 0.00 0.00 0.00 95 1022.8
20260901063100 57 76 1.0 2.0 0.00 0.00 0.00 95 1022.6
20260901062020 57 93 2.0 2.0 0.00 0.00 0.00 95 1022.5
20260901061044 57 94 2.0 3.0 0.00 0.00 0.00 95 1022.4
20260901060128 56 86 2.0 3.0 0.00 0.00 0.00 95 1022.2
20260901055029 56 107 2.0 3.0 0.00 0.00 0.00 95 1022.3
20260901054053 57 95 2.0 3.0 0.00 0.00 0.00 94 1022.3
20260901053117 57 115 2.0 4.0 0.00 0.00 0.00 94 1022.1
20260901052037 57 110 2.0 4.0 0.00 0.00 0.00 94 1022.1
20260901051101 57 109 3.0 6.0 0.00 0.00 0.00 94 1022.2
20260901050021 57 127 3.0 4.0 0.00 0.00 0.00 94 1022.2
20260901045044 57 115 2.0 4.0 0.00 0.00 0.00 94 1022.3
20260901044108 57 109 2.0 6.0 0.00 0.00 0.00 94 1022.3
20260901043029 57 123 3.0 6.0 0.00 0.00 0.00 94 1022.2
20260901042053 58 108 2.0 4.0 0.00 0.00 0.00 94 1022.1
20260901041116 58 106 2.0 3.0 0.00 0.00 0.00 94 1022.2
20260901040037 58 108 2.0 4.0 0.00 0.00 0.00 94 1022.2
20260901035100 58 115 2.0 3.0 0.00 0.00 0.00 94 1022.3
20260901034020 58 104 2.0 3.0 0.00 0.00 0.00 94 1022.3
20260901033045 58 104 2.0 3.0 0.00 0.00 0.00 93 1022.3
20260901032129 59 110 2.0 3.0 0.00 0.00 0.00 93 1022.4
20260901031028 59 90 1.0 2.0 0.00 0.00 0.00 93 1022.4
20260901030052 59 87 1.0 2.0 0.00 0.00 0.00 93 1022.3
20260901025116 59 85 1.0 2.0 0.00 0.00 0.00 93 1022.3
20260901024036 59 79 1.0 2.0 0.00 0.00 0.00 92 1022.5
20260901023100 59 82 1.0 2.0 0.00 0.00 0.00 92 1022.5
20260901022101 59 81 1.0 2.0 0.00 0.00 0.00 92 1022.4
20260901021105 60 78 1.0 2.0 0.00 0.00 0.00 91 1022.6
20260901020128 60 0.0 0.0 0.00 0.00 0.00 91 1022.6
20260901015029 60 62 0.0 1.0 0.00 0.00 0.00 91 1022.8
20260901014053 60 38 0.0 1.0 0.00 0.00 0.00 91 1023.0
20260901013116 61 56 0.0 1.0 0.00 0.00 0.00 91 1022.9
20260901012037 61 0.0 0.0 0.00 0.00 0.00 90 1023.0
20260901011101 61 0.0 0.0 0.00 0.00 0.00 90 1023.1
20260901010020 61 0.0 0.0 0.00 0.00 0.00 90 1023.2
20260901005044 61 0.0 0.0 0.00 0.00 0.00 89 1023.2
20260901004129 61 38 0.0 1.0 0.00 0.00 0.00 89 1023.1
20260901003029 62 0.0 0.0 0.00 0.00 0.00 89 1023.2
20260901002053 62 47 0.0 1.0 0.00 0.00 0.00 89 1023.5
20260901001117 63 20 1.0 2.0 0.00 0.00 0.00 89 1023.6